Location: Biltmore Gardens
(41.6070°N, 83.4666°W)
Time: 13:14:58
(UTC+00:00)

NOSS 3-4 (C) - Pass Details

Date: 14 July 2020
Orbit: 891 x 1321 km, 63.4° (Epoch: 12 July)

Event Time Altitude Azimuth Distance (km) Brightness Sun altitude
Rises 03:01:55 0° 323° (NW) 3,861 8.4 -17.0°
Reaches altitude 10° 03:04:27 10° 322° (NW) 2,962 7.4 -17.3°
Maximum altitude 03:11:33 75° 238° (WSW) 1,227 4.0 -18.1°
Enters shadow 03:16:11 27° 159° (SSE) 2,186 4.7 -18.6°
